Location: Waning Moon II Observatory
(30.3730°N, 89.7620°W)
Time: 23:09:21
(UTC-05:00)

Cosmos 1825 Rocket - Visible Passes

Search period start: 16 October 2017 00:00
Search period end: 26 October 2017 00:00
Orbit: 605 x 630 km, 82.5° (Epoch: 16 October)

Date Brightness Start Highest point End Pass type
(mag) Time Alt. Az. Time Alt. Az. Time Alt. Az.
16 Oct 6.4 04:16:23 13° ESE 04:18:02 16° E 04:20:39 10° NE visible
16 Oct 4.3 05:53:43 22° WSW 05:55:32 30° W 05:59:25 10° NNW visible
17 Oct 5.4 04:35:39 28° ENE 04:35:39 28° ENE 04:38:37 10° NNE visible
17 Oct 5.1 06:12:54 15° WNW 06:12:54 15° WNW 06:15:13 10° NW visible
18 Oct 5.4 04:54:08 23° NNE 04:54:08 23° NNE 04:55:55 10° NNE visible
19 Oct 5.9 05:12:14 13° N 05:12:14 13° N 05:12:48 10° N visible
